Location: Berry Creek
(51.8849°N, 111.7341°W)
Time: 20:54:21
(UTC-06:00)

Daily predictions for brighter satellites

Satellite Brightness Start Highest point End
(mag) Time Altitude Azimuth Time Altitude Azimuth Time Altitude Azimuth
ISS -3.4 22:12:34 10° SW 22:15:42 41° SSE 22:18:51 10° E
Cosmos 1892 Rocket 3.9 22:11:43 10° SSE 22:15:59 49° E 22:20:15 10° NNE
Cosmos 1980 Rocket 2.9 22:11:20 10° NNW 22:16:47 45° NE 22:22:12 10° ESE
SL-24 DEB 4.4 22:14:38 10° SSE 22:19:10 60° E 22:23:47 10° N
Okean 1-7 Rocket 3.9 22:14:56 10° SSW 22:19:25 75° WNW 22:23:59 10° N
Cosmos 1606 Rocket 3.8 22:17:23 10° NNW 22:21:43 70° W 22:26:00 10° S
Cosmos 1441 Rocket 4.2 22:21:02 10° SSW 22:24:40 50° WNW 22:28:20 10° N
Cosmos 1238 Rocket 4.4 22:18:53 10° SSW 22:25:36 73° WNW 22:31:47 10° N
Cosmos 2322 Rocket 3.7 22:22:46 10° NNW 22:27:37 27° NE 22:32:28 10° E
SL-08 RB Rocket 3.7 22:23:15 10° SSE 22:27:43 79° ENE 22:32:14 10° NNW
ARGOS 3.3 22:22:25 10° SSE 22:27:51 86° WSW 22:33:20 10° NNW
Cosmos 1726 Rocket 3.8 22:26:41 10° NNW 22:31:00 67° W 22:35:16 10° S
Lacrosse 5 rocket 2.4 22:28:56 10° WNW 22:33:28 51° NNE 22:38:00 10° E
Cosmos 1025 Rocket 3.7 22:30:32 10° SSW 22:34:44 58° WNW 22:38:59 10° N
Cosmos 2341 Rocket 4.3 22:28:52 10° NNW 22:35:12 74° W 22:41:34 10° S
ASTEX 1 4.5 22:30:55 10° SSW 22:35:36 44° W 22:40:18 10° NNW
USA 229 DEB 3.9 22:28:32 10° NW 22:35:40 77° NE 22:42:56 10° SE
USA 229 4.0 22:28:38 10° NW 22:35:46 77° NE 22:43:01 10° SE
Aureole 1 Rocket 4.1 22:34:37 10° SW 22:37:24 33° WNW 22:40:12 10° N
Okean 2 3.8 22:35:10 10° SSW 22:39:14 64° WNW 22:43:19 10° N
SL-27 R/B 4.5 22:39:34 10° SW 22:42:56 34° WNW 22:46:18 10° N
USA 245 2.9 22:41:12 10° S 22:43:31 43° WSW 22:45:42 10° NNW
Cosmos 2218 Rocket 4.0 22:38:46 10° N 22:44:57 76° ENE 22:51:09 10° SSE
CARTOSAT-1 4.0 22:44:16 11° SE 22:48:13 52° ENE 22:52:25 10° N
USA 234 3.9 22:42:01 10° ENE 22:48:25 58° N 22:54:47 10° WNW
Cosmos 2058 Rocket 3.5 22:44:07 10° NNW 22:48:29 61° W 22:52:52 10° S
Cosmos 1805 4.5 22:49:40 10° N 22:53:10 29° ENE 22:56:07 13° SE
Meteor 1-4 Rocket 2.5 22:50:57 10° NNW 22:54:35 83° W 22:57:49 12° S
H-2A R/B 2.1 22:50:02 10° SSE 22:55:00 79° WSW 23:00:09 10° NNW
Cosmos 2082 Rocket 2.3 22:52:48 10° S 22:58:19 56° ESE 23:03:51 10° NE
Nimbus 7 Rocket 4.5 22:55:22 10° NNE 23:01:27 76° ESE 23:07:32 10° SSW
Meteor 1-22 Rocket 4.1 22:59:02 10° NNW 23:04:22 88° ENE 23:09:18 13° SSE
IGS 5A 3.5 23:01:53 14° SSE 23:05:23 70° ENE 23:09:34 10° N
ATLAS CENTAUR R/B 2.2 23:03:52 10° NNW 23:07:24 38° NE 23:10:50 10° ESE
Orbus 7S? 4.2 22:58:29 10° WNW 23:07:25 80° SW 23:10:49 14° SE
Tiangong 2 2.9 23:06:04 10° SW 23:08:05 16° S 23:08:33 15° S
Cosmos 1812 Rocket 3.6 23:05:01 10° N 23:09:31 75° ENE 23:13:10 15° SSE
Cosmos 2181 Rocket 4.3 23:04:19 10° SSW 23:10:40 71° WNW 23:16:57 10° N
Cosmos 1697 Rocket 3.1 23:06:39 10° NW 23:12:09 56° WSW 23:17:01 13° S
H-2A R/B 2.2 23:09:07 15° SSE 23:12:57 85° ENE 23:17:30 10° NNW
Iridium 2 4.0 23:10:53 10° N 23:14:37 52° E 23:17:15 18° SSE
DMSP B5D2-2 4.1 23:09:41 10° NNE 23:14:59 65° ESE 23:20:11 10° S
SL-19 R/B 4.5 23:10:20 10° NNE 23:15:32 47° E 23:19:50 14° S
Cosmos 2360 4.2 23:11:32 10° NNW 23:17:18 90° ENE 23:21:56 16° SSE
Landsat 7 4.2 23:14:33 12° S 23:18:54 63° WSW 23:23:39 10° NNW
Cosmos 389 Rocket 3.4 23:16:54 10° N 23:20:09 35° ENE 23:22:16 18° SE
SL-16 R/B 2.8 23:14:58 10° NNW 23:20:32 50° NE 23:25:26 13° SE
Cosmos 1269 Rocket 4.4 23:16:22 12° S 23:20:55 45° ESE 23:25:58 10° NE
Cosmos 1420 Rocket 4.4 23:15:57 10° NNW 23:21:07 57° WSW 23:25:28 14° S
Cosmos 1626 Rocket 3.5 23:19:42 11° S 23:23:50 86° ESE 23:28:12 10° NNE
PSLV R/B 2.8 23:22:45 23° SSE 23:24:21 81° ENE 23:27:12 10° NNW
COSMOS 2487 3.3 23:21:11 10° SW 23:24:40 51° WNW 23:28:11 10° NNE
Cosmos 1271 Rocket 2.7 23:21:07 10° NNW 23:25:01 85° ENE 23:27:48 19° SSE
Cosmos 1821 Rocket 4.5 23:20:17 10° N 23:26:23 51° ENE 23:31:16 16° SE
Cosmos 1842 3.7 23:24:16 19° SSE 23:26:50 47° E 23:30:38 10° NNE
CZ-4C R/B 3.7 23:24:34 19° SE 23:26:52 47° ENE 23:30:26 10° N
Cosmos 1331 Rocket 4.4 23:23:27 10° NNW 23:28:34 55° ENE 23:32:31 16° SE
Cosmos 1048 Rocket 4.1 23:25:42 12° S 23:30:14 54° ESE 23:35:20 10° NNE
Cosmos 1110 Rocket 4.2 23:26:18 10° NNW 23:31:34 65° ENE 23:35:29 18° SE
Cosmos 972 Rocket 4.4 23:26:33 10° NNW 23:31:49 54° ENE 23:35:32 17° SE
Cosmos 1833 Rocket 2.7 23:27:33 10° SSW 23:33:11 88° ESE 23:38:52 10° NNE
Terra 2.1 23:30:03 15° S 23:33:56 63° WSW 23:38:41 10° NNW
Cosmos 1733 4.3 23:32:25 10° N 23:35:54 32° ENE 23:38:09 18° SE
Cosmos 1825 Rocket 4.1 23:35:05 20° SSE 23:37:41 42° E 23:41:47 10° NNE
CZ-2C R/B 4.3 23:39:13 13° ESE 23:43:36 36° ENE 23:48:47 10° N
Cosmos 1544 3.2 23:41:21 10° NNW 23:44:59 71° W 23:47:11 22° S
ALOS 2 4.0 23:44:27 14° ESE 23:47:31 28° ENE 23:51:17 10° N
Cosmos 1953 2.3 23:44:16 10° N 23:48:22 77° E 23:50:49 23° SSE
ISS -3.9 23:48:45 10° W 23:52:04 86° S 23:55:23 10° E
USA 267 4.3 23:47:42 10° ENE 23:52:48 24° SE 23:55:16 19° SSE
